Location: Bois de la Silve
(44.4667°N, 6.7833°E)
Time: 10:34:13
(UTC+00:00)

ATLAS 5 CENTAUR R/B - Pass Details

Date: 14 July 2020
Orbit: 534 x 1124 km, 63.4° (Epoch: 30 July)

Event Time Altitude Azimuth Distance (km) Brightness Sun altitude
Rises 03:19:21 0° 316° (NW) 3,362 5.3 -7.0°
Reaches altitude 10° 03:21:47 10° 309° (NW) 2,515 4.6 -6.6°
Maximum altitude 03:27:17 41° 241° (WSW) 1,370 2.9 -5.9°
Drops below altitude 10° 03:33:30 10° 175° (S) 2,852 4.6 -5.0°
Sets 03:36:26 0° 168° (SSE) 3,862 5.4 -4.6°
